Hourly Data Report for October 28, 2014

All times are specified in Local Standard Time (LST). Add 1 hour to adjust for Daylight Saving Time where and when it is observed.

QIKIQTARJUAQ A
NUNAVUT

67°32'48.000" N
64°01'54.000" W
5.50 m
2400577
YVM

Download Data

Hourly Data (October 2014)
Hourly Data Report for October 28, 2014
Temp Definition
°C
Dew Point Temp Definition
°C
Rel Hum Definition
%
Wind Dir Definition
10's deg

Wind Spd Definition
km/h
Visibility Definition
km
Stn Press Definition
kPa
Hmdx Definition


Wind Chill Definition


Weather Definition


TIME
00:00 Legend Double Dagger -6.6 -11.3 69   0 16.1 101.83     LegendNANA
01:00 Legend Double Dagger -6.4 -10.3 74 17 4 16.1 101.79   -8 LegendNANA
02:00 Legend Double Dagger -6.6 -10.3 75 14 5 16.1 101.77   -9 LegendNANA
03:00 Legend Double Dagger -7.0 -10.6 76 16 4 16.1 101.72   -9 LegendNANA
04:00 Legend Double Dagger -6.7 -10.4 75 17 4 16.1 101.68   -9 LegendNANA
05:00 Legend Double Dagger -6.2 -9.6 77 17 5 16.1 101.63   -9 LegendNANA
06:00 Legend Double Dagger -6.0 -10.3 72 18 8 16.1 101.60   -10 LegendNANA
07:00 Legend Double Dagger -6.9 -11.0 73 15 8 16.1 101.56   -11 LegendNANA
08:00 Legend Double Dagger -6.2 -9.8 76 17 4 16.1 101.50   -8 LegendNANA
09:00 Legend Double Dagger -5.5 -9.5 74 20 5 16.1 101.42   -8 LegendNANA
10:00 Legend Double Dagger -5.2 -8.6 77 16 4 16.1 101.39   -7 LegendNANA
11:00 Legend Double Dagger -5.9 -9.5 76 13 5 16.1 101.34   -8 LegendNANA
12:00 Legend Double Dagger -6.1 -9.7 76 14 5 16.1 101.28   -9 LegendNANA
13:00 Legend Double Dagger -5.7 -9.3 76 12 5 16.1 101.25   -8 LegendNANA
14:00 Legend Double Dagger -5.9 -9.1 79 14 8 16.1 101.23   -10 LegendNANA
15:00 Legend Double Dagger -5.7 -9.6 74 14 9 16.1 101.18   -10 LegendNANA
16:00 Legend Double Dagger -5.5 -9.4 74 15 9 16.1 101.17   -10 LegendNANA
17:00 Legend Double Dagger -5.1 -9.2 73 19 9 16.1 101.13   -9 LegendNANA
18:00 Legend Double Dagger -4.7 -8.8 73 17 5 16.1 101.09   -7 LegendNANA
19:00 Legend Double Dagger -4.6 -9.0 71 19 11 16.1 101.07   -9 LegendNANA
20:00 Legend Double Dagger -4.5 -9.1 70 20 15 16.1 101.04   -10 LegendNANA
21:00 Legend Double Dagger -3.9 -8.6 70 20 26 16.1 101.00   -11 LegendNANA
22:00 Legend Double Dagger -4.3 -7.3 80 20 22 12.9 100.96   -11 Snow
23:00 Legend Double Dagger -4.5 -7.0 83 21 26 14.5 100.91   -12 Snow

Notes on Data Quality.

Legend

  • E = Estimated
  • M = Missing
  • NA = Not Available
  • ‡ = Partner data that is not subject to review by the National Climate Archives
Date modified: